Weather Roundup
Issued by NWS Chicago, IL

Home | Current Version | Previous Version | Text Only | Print | Product List | Glossary On
Versions: 1 2 3 4 5 6 7 8 9 10 11 12 13 14 15 16 17 18 19 20 21 22 23 24 25 26 27 28 29 30 31 32 33 34 35 36 37 38 39 40 41 42 43 44 45 46 47 48 49 50
244
NZUS59 KLOT 181009
HRRLOT

CHICAGO AREA WEATHER ROUNDUP
NATIONAL WEATHER SERVICE CHICAGO/ROMEOVILLE IL
500 AM CDT WED OCT 18 2017

NOTE: "FAIR" INDICATES FEW OR NO CLOUDS BELOW 12,000 FEET WITH NO
SIGNIFICANT WEATHER AND/OR OBSTRUCTIONS TO VISIBILITY.

* THESE STATIONS ARE NOT UNDER NWS QUALITY CONTROL. THEY ALSO MAY NOT
  REPORT WEATHER SUCH AS PRECIPITATION OR FOG.

ILZ005-006-012>014-019>023-181100-
NORTHEAST ILLINOIS

CITY           SKY/WX    TMP DP  RH WIND       PRES   REMARKS
OHARE          CLEAR     49  41  74 S7        30.15S
MIDWAY         CLEAR     50  41  71 S8        30.17R
AURORA         CLEAR     44  40  85 SE5       30.16R
LANSING*       PTCLDY    46  42  84 S6        30.19S
JOLIET*        CLEAR     44  42  91 SE3       30.17S
WAUKEGAN       CLEAR     50  41  71 S10       30.12S
DUPAGE AIRPORT CLEAR     45  41  86 S8        30.15R
WHEELING       CLEAR     49  42  77 S6        30.16S
KANKAKEE*      CLEAR     46  40  78 S7        30.20R
MORRIS*        CLEAR     42  39  88 S7        30.16S
LEWIS AIRPORT* CLEAR     43  40  88 S8        30.17R
$$

WIZ051-052-058>065-066-070>072-181100-
SOUTHEAST WISCONSIN

CITY           SKY/WX    TMP DP  RH WIND       PRES   REMARKS
MILWAUKEE      CLEAR     52  42  69 SW8       30.10S
KENOSHA*       CLEAR     49  41  74 S9        30.12S
RACINE*        CLEAR     51  42  71 SW9       30.12S
BURLINGTON     CLEAR     46  42  86 S7        30.11S
WAUKESHA       CLEAR     48  37  66 S7        30.10S
WEST BEND      CLEAR     54  41  62 SW5       30.07R
$$

INZ001>003-010>013-019-020-181100-
NORTHWEST INDIANA

CITY           SKY/WX    TMP DP  RH WIND       PRES   REMARKS
GARY*          CLEAR     54  39  58 S5        30.19R
MICHIGAN CITY* NOT AVBL
RENSSELAER*    NOT AVBL
VALPARAISO     CLEAR     47  40  76 S6        30.21R
$$

LMZ740>746-181100-
SOUTHERN LAKE MICHIGAN

STATION/POSITION TIME  SKY/WX   TEMP WIND        PRES    VSBY
                                AIR  DIR/SP/G
                 (UTC)          (F)  (DEG/KT/KT) (MB)    (MI)
HARRISON CRIB    0940            56  200/ 17/ 19   N/A
BURNHAM HARBOR   1000            53  180/  9/ 10   N/A
CALUMET HARBOR   0948            50  170/  5/  8 1021.1R
BURNS HARBOR     0940            53  190/ 14/ 19 1022.4S
MICHIGAN CITY    0940            52  160/ 11/ 15   N/A
$$

ABBREVIATIONS USED IN REMARKS
   TC - TEMPERATURE IN CELSIUS
  WCI - WIND CHILL INDEX
   HX - HEAT INDEX
  VSB - VISIBILITY
$$




USA.gov is the U.S. government's official web portal to all federal, state and local government web resources and services.